Flag for U.S.A. Weather past 2 weeks in Manassas, Virginia, U.S.A.

Now
34 °F

Low clouds.


Feels Like: 34 °F
Forecast: 27 / 40 °F
Wind: No wind

Location: Manassas Municipal

Current Time: Mar 2, 2015 at 6:32:05 AM

Latest Report: Mar 2, 2015 at 5:55 AM


Visibility: 1 mi

Pressure: 30.12 "Hg

Humidity: 100%

Dew point: 34 °F

Location of ManassasLocation

Historic Weather in Manassas — Graph

°F

Manassas temperature yesterday

Maximum temperature yesterday: 34 °F (at 10:55 PM)
Minimum temperature yesterday: 16 °F (at 12:15 AM)
Average temperature yesterday: 26 °F

Past Weeks' High & Low Weather Summary

 TemperatureHumidityPressure
High46 °F (Feb 22, 2:50 PM)100% (Feb 18, 2:55 AM)30.88 "Hg (Feb 18, 2:55 AM)
Low0 °F (Feb 20, 10:35 PM)25% (Feb 20, 3:45 PM)29.73 "Hg (Feb 18, 2:45 PM)
Average21 °F70%30.22 "Hg
* Reported Feb 15 5:15 AM — Mar 2 5:35 AM, Manassas, Weather by CustomWeather, © 2015

Note: Actual official high and low records may vary slightly from our data, if they occured in-between our weather recording intervals... More about our weather records

Advertising

Manassas weather history for previous 24 hours

 ConditionsComfort  
Time TempWeatherWind HumidityBarometerVisibility
5:35 AM
Mon, Mar 2
34 °FLow clouds.No wind100%30.11 "Hg1 mi
5:15 AM34 °FLow clouds.6 mph93%30.11 "Hg1 mi
4:55 AM34 °FLow clouds.3 mph93%30.11 "Hg1 mi
4:35 AM34 °FLow clouds.No wind93%30.10 "Hg1 mi
4:15 AM34 °FLow clouds.No wind93%30.09 "Hg1 mi
3:55 AM34 °FLow clouds.No wind100%30.08 "Hg1 mi
3:35 AM34 °FLow clouds.No wind100%30.08 "Hg0 mi
3:15 AM34 °FLow clouds.No wind100%30.09 "Hg1 mi
2:55 AM34 °FLow clouds.No wind100%30.12 "Hg1 mi
2:35 AM34 °FLow clouds.No wind100%30.13 "Hg1 mi
2:15 AM34 °FLow clouds.No wind100%30.14 "Hg1 mi
1:55 AM34 °FLow clouds.No wind100%30.14 "Hg1 mi
1:35 AM34 °FLow clouds.No wind100%30.15 "Hg2 mi
1:15 AM34 °FLow clouds.3 mph100%30.15 "Hg2 mi
12:55 AM34 °FLow clouds.No wind100%30.17 "Hg2 mi
12:35 AM34 °FLow clouds.No wind100%30.17 "Hg2 mi
12:15 AM34 °FLow clouds.3 mph100%30.18 "Hg2 mi
11:55 PM
Sun, Mar 1
34 °FLow clouds.3 mph100%30.19 "Hg2 mi
11:35 PM34 °FLow clouds.3 mph93%30.18 "Hg3 mi
11:15 PM34 °FLow clouds.3 mph93%30.19 "Hg3 mi
10:55 PM34 °FLow clouds.5 mph93%30.22 "Hg3 mi
10:35 PM32 °FLow clouds.No wind100%30.24 "Hg5 mi
6:55 PM32 °FLow clouds.No wind100%30.30 "Hg10 mi
5:45 PM32 °FLight freezing rain. Low clouds.7 mph100%30.32 "Hg7 mi
4:45 PM30 °FMostly cloudy.5 mph100%30.37 "Hg10 mi
3:45 PM30 °FLow clouds.7 mph93%30.39 "Hg9 mi
2:45 PM30 °FMostly cloudy.8 mph93%30.43 "Hg1 mi
11:45 AM28 °FMostly cloudy.5 mph93%30.58 "Hg10 mi
10:50 AM27 °FOvercast.8 mph100%30.59 "Hg9 mi
9:55 AM27 °FOvercast.7 mph93%30.63 "Hg9 mi
8:50 AM27 °FOvercast.3 mph74%30.65 "Hg8 mi
6:15 AM25 °FMostly cloudy.No wind69%30.65 "Hg10 mi
Weather by CustomWeather, © 2015

See weather overviewHow to use our weather pages